Startpagina
METAR-TAF:

METAR-TAF

Vliegvelden :

São Gabriel da Cachoeira, Amazonas, Brazilië

breedte: 00-08S, lengte: 067-05W, hoogte: 90 m

Actueel weer

Dit bericht is 4 uur en het 32 minuten geleden gemaakt, om 19:00 UTC
Wind 6 kt uit het oosten
Temperatuur 25°C
Vochtigheid 89%
Druk 1010 hPa
Zicht 10 km of meer
Weinig wolken op 2700 ft
Gebroken wolken op 10000 ft

METAR: SBUA 221900Z 10006KT 9999 FEW027 BKN100 25/23 Q1010

Tijdstip: 19:32 (23:32 UTC)


TAF: ontbreekt

Waarnemingen en weersverwachtingen van meer dan 4000 vliegvelden (METAR en TAF).

De beschikbare stations zijn de gele en rode punten op de kaart.

Ga met uw muis naar het station om de naam te zien.

Klik dan om waarnemingen en weersverwachtingen te zien.

kaart wijzigen: klik op de groene knoppen met een zwart kruis om in te zoomen, op de groene knop met een streepje om uit te zoomen of op de groene pijlen voor aangrenzende kaarten.


METAR-TAF: